Etusivu
METAR-TAF:

METAR-TAF

Lentoasemat :

Sveg, Ruotsi

Leveyspiiri: 62-02-52N, Pituuspiiri: 014-25-22E, korkeus merenpinnasta: 359 m

Tämänhetkinen sää

Tämä raportti tehtiin 19 minuuttia sitten, kello 01.50 UTC
Tuuli 1 kn eri suunnista
Lämpötila -5°C
Kosteus 86%
Ilmanpaine 997 hPa
Näkyvyys 10 km tai enemmän

METAR: ESND 250150Z AUTO VRB01KT 9999 NCD M05/M07 Q0997

Aika: 03:09 (02:09 UTC)


TAF: puuttuu

Säähavainnot ja -ennusteet yli 4000 lentoasemalta (METAR- ja TAF-raportit).

Käytössä olevat sääasemat on merkitty karttaan keltaisilla ja punaisilla pisteillä.

Aseta hiiri pisteen päälle nähdäksesi sääaseman nimen.

Klikkaa sitten nähdäksesi säähavainnot ja -ennusteet.

Kartan vaihtaminen: klikkaa mustalla rastilla varustettuja vihreitä pisteitä, niin voit zoomata sisään; viivalla varustettua vihreää pistettä, niin voit zoomata ulos tai vihreitä nuolia, niin pääset viereisille kartoille.


METAR-TAF: